Location: The Saddle
(36.8333°N, 80.3417°W)
Time: 07:34:12
(UTC-04:00)

Vanguard 2 Rocket - Pass Details

Date: 01 February 2023
Orbit: 555 x 3316 km, 32.9° (Epoch: 27 March)

Event Time Altitude Azimuth Distance (km) Brightness Sun altitude
Rises 11:35:54 0° 246° (WSW) 3,157 9.8 34.4°
Reaches altitude 10° 11:38:39 10° 238° (WSW) 2,027 9.0 34.5°
Maximum altitude 11:42:42 38° 169° (S) 857 10.0 34.7°
Drops below altitude 10° 11:46:23 10° 99° (E) 1,841 8.9 34.9°
Sets 11:48:45 0° 91° (E) 2,820 9.6 35.0°
